Home > Weather > Overland Park > Past weeks

Flag for USA Past Weather in Overland Park, Kansas, USA — Yesterday and Last 2 Weeks

Now
80 °F

Sunny.


Feels Like: 82 °F
Forecast: 69 / 85 °F
Wind: 6 mph from Southeast

Location: Johnson County Executive Airport

Current Time: Jul 30, 2016 at 8:44:55 PM

Latest Report: Jul 30, 2016 at 7:53 PM


Visibility: 10 mi

Pressure: 29.92 "Hg

Humidity: 64%

Dew Point: 67 °F

Location of Overland ParkLocation

Past Weather in Overland Park — Graph

°F

Overland Park Temperature Yesterday

Maximum temperature yesterday: 85 °F (at 2:53 PM)
Minimum temperature yesterday: 68 °F (at 2:53 AM)
Average temperature yesterday: 76 °F

High & Low Weather Summary for the Past Weeks

 TemperatureHumidityPressure
High94 °F (Jul 21, 2:53 PM)97% (Jul 19, 4:53 AM)30.18 "Hg (Jul 19, 4:53 AM)
Low66 °F (Jul 30, 5:53 AM)40% (Jul 27, 2:53 PM)29.83 "Hg (Jul 23, 7:53 PM)
Average81 °F71%29.99 "Hg
* Reported Jul 15 6:53 PM — Jul 30 6:53 PM, Overland Park, Weather by CustomWeather, © 2016

Note: Actual official high and low records may vary slightly from our data, if they occured in-between our weather recording intervals... More about our weather records

Advertising

Overland Park Weather History for the Previous 24 Hours

Scroll right to see more
 ConditionsComfort  
Time TempWeatherWind HumidityBarometerVisibility
6:53 PM
Sat, Jul 30
84 °FSunny.3 mph51%29.91 "Hg10 mi
5:53 PM82 °FSunny.No wind60%29.91 "Hg10 mi
4:53 PM80 °FLight rain. Broken clouds.6 mph71%29.93 "Hg10 mi
3:53 PM84 °FSunny.No wind51%29.96 "Hg10 mi
2:53 PM82 °FCloudy.No wind56%29.98 "Hg10 mi
1:53 PM83 °FPassing clouds.No wind53%29.98 "Hg10 mi
12:53 PM83 °FPartly sunny.6 mph55%30.00 "Hg10 mi
11:53 AM80 °FSunny.3 mph56%30.01 "Hg10 mi
10:53 AM79 °FScattered clouds.3 mph58%30.01 "Hg10 mi
9:53 AM75 °FScattered clouds.No wind66%30.01 "Hg10 mi
8:53 AM72 °FPassing clouds.7 mph73%29.99 "Hg10 mi
7:53 AM69 °FSunny.6 mph81%29.98 "Hg10 mi
6:53 AM66 °FPassing clouds.No wind90%29.99 "Hg10 mi
5:53 AM66 °FClear.6 mph87%29.97 "Hg10 mi
4:53 AM67 °FClear.3 mph85%29.97 "Hg10 mi
3:53 AM67 °FClear.No wind85%29.97 "Hg10 mi
2:53 AM68 °FClear.5 mph78%29.97 "Hg10 mi
1:53 AM69 °FClear.6 mph79%29.98 "Hg10 mi
12:53 AM72 °FClear.5 mph71%29.99 "Hg10 mi
11:53 PM
Fri, Jul 29
73 °FClear.No wind71%29.99 "Hg10 mi
10:53 PM74 °FClear.3 mph67%29.97 "Hg10 mi
9:53 PM76 °FClear.7 mph62%29.96 "Hg10 mi
8:53 PM78 °FSunny.7 mph56%29.94 "Hg10 mi
Weather by CustomWeather, © 2016

See weather overviewHow to use our weather pages